Tracking 19575 objects as of 19-Feb-2019
HD Live streaming from Space Station
objects crossing your sky now

HORIZONS 3E

Track HORIZONS 3E now!


NORAD ID: 43633
Int'l Code: 2018-074B
Perigee: 35,791.5 km
Apogee: 35,796.3 km
Inclination: 0.0 °
Period: 1,436.1 minutes
Semi major axis: 42164 km
RCS: Unknown
Launch date: September 25, 2018
Source: Japan (JPN)
Launch site: FRENCH GUIANA (FRGUI)
aabbcc
Your satellite tracking list
Your tracking list is empty




NASA's NSSDC Master Catalog

Two Line Element Set (TLE):
1 43633U 18074B   19050.84042668 -.00000052  00000-0  00000+0 0  9999
2 43633   0.0166 306.3190 0000560  20.4626 294.2209  1.00271270  1534
Source of the keplerian elements: AFSPC